When you browse on this site, cookies collect data to enhance your experience and personalize the content and advertising you see.
Visit our Privacy Policy to learn more. By continuing to use the site, you agree to this use of cookies and data.
  • In Hungary
  • List of Countries
  • For 7 days
  • Water Temperature
  • Satellite Maps
  • Weather Map
  • News
  • Weather Widgets
  • user-avatar
    Login

    Hourly Weather Kartepe

    Today, 20 February, Wednesday

    Time Temperature Precipitation Wind Pressure Humidity
    00:00 +7°C° 0 mm 1 mps 727 mmHg 64%
    01:00 +7°C° 0 mm 1 mps 727 mmHg 63%
    02:00 +7°C° 0 mm 1 mps 726 mmHg 62%
    03:00 +6°C° 0 mm 1 mps 726 mmHg 61%
    04:00 +6°C° 0 mm 1 mps 726 mmHg 61%
    05:00 +6°C° 0 mm 1 mps 726 mmHg 60%
    06:00 +6°C° 0 mm 1 mps 726 mmHg 59%
    07:00 +7°C° 0 mm 1 mps 726 mmHg 59%
    08:00 +7°C° 0 mm 1 mps 726 mmHg 58%
    09:00 +9°C° 0 mm 1 mps 726 mmHg 51%
    10:00 +12°C° 0 mm 1 mps 726 mmHg 43%
    11:00 +14°C° 0 mm 1 mps 727 mmHg 36%
    12:00 +15°C° 0 mm 1 mps 726 mmHg 35%
    13:00 +15°C° 0 mm 2 mps 726 mmHg 34%
    14:00 +16°C° 0 mm 2 mps 726 mmHg 33%
    15:00 +15°C° 0 mm 2 mps 726 mmHg 40%
    16:00 +14°C° 0 mm 2 mps 726 mmHg 46%
    17:00 +13°C° 0 mm 2 mps 725 mmHg 53%
    18:00 +11°C° 0 mm 1 mps 726 mmHg 57%
    19:00 +10°C° 0 mm 1 mps 726 mmHg 61%
    20:00 +9°C° 0 mm 1 mps 726 mmHg 65%
    21:00 +8°C° 0 mm 1 mps 726 mmHg 66%
    22:00 +8°C° 0 mm 1 mps 726 mmHg 67%
    23:00 +8°C° 0 mm 1 mps 727 mmHg 68%

    Tomorrow, 21 February, Thursday

    Time Temperature Precipitation Wind Pressure Humidity
    00:00 +8°C° 0 mm 1 mps 727 mmHg 68%
    01:00 +7°C° 0 mm 1 mps 727 mmHg 69%
    02:00 +7°C° 0 mm 1 mps 727 mmHg 69%
    03:00 +7°C° 0 mm 1 mps 727 mmHg 70%
    04:00 +6°C° 0 mm 1 mps 727 mmHg 71%
    05:00 +6°C° 0 mm 1 mps 727 mmHg 73%
    06:00 +7°C° 0 mm 1 mps 727 mmHg 74%
    07:00 +7°C° 0 mm 1 mps 728 mmHg 74%
    08:00 +7°C° 0 mm 1 mps 728 mmHg 75%
    09:00 +9°C° 0 mm 1 mps 728 mmHg 73%
    10:00 +10°C° 0 mm 1 mps 729 mmHg 70%
    11:00 +10°C° 0 mm 2 mps 729 mmHg 68%
    12:00 +12°C° 0.1 mm 2 mps 729 mmHg 66%
    13:00 +11°C° 0.1 mm 3 mps 729 mmHg 64%
    14:00 +11°C° 0.1 mm 3 mps 728 mmHg 63%
    15:00 +11°C° 0.1 mm 3 mps 728 mmHg 67%
    16:00 +10°C° 0.1 mm 3 mps 728 mmHg 71%
    17:00 +9°C° 0.1 mm 2 mps 729 mmHg 75%
    18:00 +8°C° 0 mm 2 mps 729 mmHg 80%
    19:00 +8°C° 0 mm 1 mps 729 mmHg 85%
    20:00 +7°C° 0 mm 1 mps 730 mmHg 90%
    21:00 +7°C° 0 mm 1 mps 730 mmHg 91%
    22:00 +6°C° 0 mm 1 mps 730 mmHg 92%
    23:00 +6°C° 0 mm 1 mps 730 mmHg 92%

    Day after tomorrow, 22 February, Friday

    Time Temperature Precipitation Wind Pressure Humidity
    00:00 +6°C° 0 mm 1 mps 729 mmHg 92%
    01:00 +6°C° 0 mm 1 mps 729 mmHg 92%
    02:00 +5°C° 0 mm 1 mps 729 mmHg 92%
    03:00 +5°C° 0 mm 1 mps 728 mmHg 91%
    04:00 +5°C° 0 mm 1 mps 728 mmHg 90%
    05:00 +4°C° 0 mm 1 mps 728 mmHg 90%
    06:00 +5°C° 0 mm 1 mps 727 mmHg 87%
    07:00 +5°C° 0 mm 1 mps 727 mmHg 85%
    08:00 +6°C° 0 mm 1 mps 727 mmHg 82%
    09:00 +7°C° 0 mm 1 mps 726 mmHg 74%
    10:00 +9°C° 0 mm 1 mps 726 mmHg 66%
    11:00 +10°C° 0 mm 1 mps 725 mmHg 58%
    12:00 +10°C° 0 mm 2 mps 725 mmHg 55%
    13:00 +12°C° 0 mm 2 mps 724 mmHg 52%
    14:00 +11°C° 0 mm 3 mps 723 mmHg 49%
    15:00 +10°C° 0 mm 3 mps 723 mmHg 53%
    16:00 +10°C° 0 mm 2 mps 722 mmHg 57%
    17:00 +9°C° 0 mm 2 mps 722 mmHg 61%
    18:00 +8°C° 0.1 mm 2 mps 722 mmHg 65%
    19:00 +9°C° 0.1 mm 1 mps 722 mmHg 69%
    20:00 +7°C° 0.1 mm 0 mps 722 mmHg 73%
    21:00 +7°C° 0.4 mm 0 mps 722 mmHg 76%
    22:00 +7°C° 0.4 mm 1 mps 722 mmHg 80%
    23:00 +7°C° 0.4 mm 1 mps 722 mmHg 83%

    23 February, Saturday

    Time Temperature Precipitation Wind Pressure Humidity
    00:00 +7°C° 0.6 mm 1 mps 721 mmHg 85%
    01:00 +7°C° 0.6 mm 1 mps 721 mmHg 87%
    02:00 +6°C° 0.6 mm 1 mps 721 mmHg 89%
    03:00 +6°C° 1.1 mm 1 mps 721 mmHg 91%
    04:00 +5°C° 1.1 mm 2 mps 721 mmHg 92%
    05:00 +4°C° 1.1 mm 3 mps 721 mmHg 93%
    06:00 +3°C° 1.5 mm 4 mps 722 mmHg 92%
    07:00 +1°C° 1.5 mm 4 mps 722 mmHg 91%
    08:00 0°C° 1.5 mm 5 mps 723 mmHg 89%
    09:00 -1°C° 0.9 mm 6 mps 723 mmHg 90%
    10:00 -2°C° 0.9 mm 6 mps 724 mmHg 90%
    11:00 -3°C° 0.9 mm 6 mps 724 mmHg 91%
    12:00 -3°C° 0.3 mm 6 mps 724 mmHg 90%
    13:00 -3°C° 0.3 mm 6 mps 724 mmHg 89%
    14:00 -4°C° 0.3 mm 6 mps 724 mmHg 87%
    15:00 -4°C° 0.3 mm 6 mps 724 mmHg 87%
    16:00 -4°C° 0.3 mm 6 mps 724 mmHg 87%
    17:00 -5°C° 0.3 mm 6 mps 724 mmHg 87%
    18:00 -5°C° 0.7 mm 5 mps 725 mmHg 89%
    19:00 -5°C° 0.7 mm 5 mps 725 mmHg 90%
    20:00 -5°C° 0.7 mm 5 mps 725 mmHg 92%
    21:00 -6°C° 0.5 mm 5 mps 725 mmHg 92%
    22:00 -6°C° 0.5 mm 5 mps 725 mmHg 92%
    23:00 -6°C° 0.5 mm 5 mps 725 mmHg 92%

    24 February, Sunday

    Time Temperature Precipitation Wind Pressure Humidity
    00:00 -6°C° 0.3 mm 5 mps 725 mmHg 92%
    01:00 -6°C° 0.3 mm 5 mps 725 mmHg 92%
    02:00 -5°C° 0.3 mm 5 mps 724 mmHg 92%
    03:00 -5°C° 0.5 mm 5 mps 724 mmHg 92%
    04:00 -4°C° 0.5 mm 4 mps 724 mmHg 92%
    05:00 -4°C° 0.5 mm 4 mps 723 mmHg 93%
    06:00 -5°C° 0.7 mm 5 mps 723 mmHg 93%
    07:00 -5°C° 0.7 mm 5 mps 724 mmHg 93%
    08:00 -5°C° 0.7 mm 5 mps 724 mmHg 93%
    09:00 -5°C° 0.4 mm 5 mps 724 mmHg 92%
    10:00 -4°C° 0.4 mm 6 mps 724 mmHg 91%
    11:00 -4°C° 0.4 mm 6 mps 724 mmHg 90%
    12:00 -4°C° 0.5 mm 6 mps 724 mmHg 90%
    13:00 -4°C° 0.5 mm 6 mps 724 mmHg 91%
    14:00 -4°C° 0.5 mm 5 mps 724 mmHg 91%
    15:00 -4°C° 0.4 mm 5 mps 723 mmHg 91%
    16:00 -4°C° 0.4 mm 5 mps 723 mmHg 91%
    17:00 -3°C° 0.4 mm 4 mps 723 mmHg 91%
    18:00 -3°C° 0.4 mm 4 mps 723 mmHg 92%
    19:00 -3°C° 0.4 mm 4 mps 723 mmHg 93%
    20:00 -3°C° 0.4 mm 4 mps 723 mmHg 93%
    21:00 -3°C° 0.9 mm 4 mps 723 mmHg 94%
    22:00 -3°C° 0.9 mm 4 mps 723 mmHg 94%
    23:00 -2°C° 0.9 mm 3 mps 723 mmHg 94%

    25 February, Monday

    Time Temperature Precipitation Wind Pressure Humidity
    00:00 -2°C° 1 mm 3 mps 723 mmHg 95%
    01:00 -2°C° 1 mm 3 mps 722 mmHg 95%
    02:00 -2°C° 1 mm 3 mps 722 mmHg 95%
    03:00 -1°C° 1.1 mm 3 mps 722 mmHg 95%
    04:00 -1°C° 1.1 mm 3 mps 722 mmHg 96%
    05:00 -1°C° 1.1 mm 3 mps 723 mmHg 96%
    06:00 -1°C° 0.5 mm 3 mps 723 mmHg 96%
    07:00 -1°C° 0.5 mm 3 mps 723 mmHg 96%
    08:00 -1°C° 0.5 mm 3 mps 723 mmHg 96%
    09:00 0°C° 0.3 mm 3 mps 723 mmHg 96%
    10:00 0°C° 0.3 mm 3 mps 723 mmHg 97%
    11:00 0°C° 0.3 mm 3 mps 723 mmHg 97%
    12:00 0°C° 0.3 mm 3 mps 723 mmHg 97%
    13:00 0°C° 0.3 mm 3 mps 722 mmHg 97%
    14:00 0°C° 0.3 mm 3 mps 722 mmHg 97%
    15:00 0°C° 0.5 mm 3 mps 722 mmHg 97%
    16:00 0°C° 0.5 mm 3 mps 722 mmHg 97%
    17:00 0°C° 0.5 mm 3 mps 722 mmHg 97%
    18:00 +1°C° 1.4 mm 3 mps 722 mmHg 97%
    19:00 +1°C° 1.4 mm 3 mps 722 mmHg 98%
    20:00 +1°C° 1.4 mm 3 mps 722 mmHg 98%
    21:00 +1°C° 1.3 mm 3 mps 722 mmHg 98%
    22:00 +1°C° 1.3 mm 3 mps 721 mmHg 98%
    23:00 +1°C° 1.3 mm 3 mps 721 mmHg 98%
    Show more